This is the latest recevied weather packets stored in our database for station/object N8XHB. If no packets are shown the sender has not sent any weather packets the latest 10 day(s).
| Time | Temp. | Humidity | Pressure | Rain* | Wind** | Luminosity | Snow |
|---|---|---|---|---|---|---|---|
| 1777936923 | 23.33° C | 33% | 997.7 hPa | 0 mm | - | 71 W/m² | - |
| 1777936619 | 23.33° C | 33% | 997.6 hPa | 0 mm | - | 78 W/m² | - |
| 1777936315 | 22.78° C | 34% | 997.8 hPa | 0 mm | - | 74 W/m² | - |
| 1777936012 | 22.78° C | 34% | 998 hPa | 0 mm | - | 63 W/m² | - |
| 1777935711 | 22.78° C | 34% | 998.1 hPa | 0 mm | - | 59 W/m² | - |
| 1777935409 | 22.78° C | 34% | 998.2 hPa | 0 mm | - | 57 W/m² | - |
| 1777935104 | 23.33° C | 34% | 998.2 hPa | 0 mm | - | 54 W/m² | - |
| 1777934802 | 23.33° C | 33% | 998.2 hPa | 0 mm | - | 52 W/m² | - |
| 1777934498 | 23.33° C | 33% | 998.4 hPa | 0 mm | - | 50 W/m² | - |
| 1777934196 | 23.33° C | 33% | 998.5 hPa | 0 mm | - | 56 W/m² | - |
| 1777933891 | 23.33° C | 33% | 998.4 hPa | 0 mm | - | 69 W/m² | - |
| 1777933588 | 23.33° C | 33% | 998.7 hPa | 0 mm | - | 72 W/m² | - |
| 1777933285 | 23.33° C | 33% | 998.6 hPa | 0 mm | - | 71 W/m² | - |
| 1777932983 | 23.33° C | 32% | 998.6 hPa | 0 mm | - | 73 W/m² | - |
| 1777932680 | 23.33° C | 32% | 998.7 hPa | 0 mm | - | 85 W/m² | - |
| 1777932376 | 23.33° C | 32% | 998.8 hPa | 0 mm | - | 83 W/m² | - |
| 1777932074 | 23.33° C | 32% | 998.9 hPa | 0 mm | - | 81 W/m² | - |
| 1777931769 | 23.33° C | 32% | 998.9 hPa | 0 mm | - | 90 W/m² | - |
| 1777931467 | 23.33° C | 32% | 999 hPa | 0 mm | - | 105 W/m² | - |
| 1777931163 | 23.33° C | 32% | 998.9 hPa | 0 mm | - | 115 W/m² | - |
| 1777930859 | 23.33° C | 31% | 999.1 hPa | 0 mm | - | 102 W/m² | - |
| 1777930556 | 23.33° C | 32% | 999.2 hPa | 0 mm | - | 90 W/m² | - |
| 1777930253 | 23.33° C | 31% | 999.2 hPa | 0 mm | - | 97 W/m² | - |
| 1777929949 | 23.33° C | 32% | 999.1 hPa | 0 mm | - | 107 W/m² | - |
| 1777929646 | 23.33° C | 31% | 999.4 hPa | 0 mm | - | 105 W/m² | - |
* Rain latest hour (hover to see other rain measurements)
** Current wind speed in m/s (hover to see current wind gust speed)